Dewpoint
65 63 63 62 61 61 61 60 59 57 56 55 54 54 55 55 57 60 62 62 63 62 62 61 61 61 60 60 59 58 57 57 56 56 56 56 57 57 57 56 56 56 55
64 63 62 62 60 59 59 58 56 56 55 54 53 53 52 54 55 58 61 62 63 63 63 62 62 61 61 60 60 59 58 58 57 56 55 55 56 56 56 56 56 56 55
63 62 61 62 61 59 56 54 54 54 53 55 54 52 51 51 52 54 59 60 62 63 64 64 63 63 63 62 61 61 60 60 59 58 57 55 55 55 55 55 55 55 54
62 61 60 62 60 57 55 54 53 53 56 57 58 56 57 57 55 52 53 58 60 61 62 64 65 65 64 64 63 63 62 62 61 60 59 57 55 55 55 54 55 55 54
61 61 60 59 57 55 54 53 53 54 58 59 58 58 57 56 56 55 54 54 55 57 59 60 61 63 63 62 62 62 62 62 62 62 61 60 58 56 55 55 54 55 54
59 58 57 56 55 54 55 55 54 58 59 59 58 57 57 57 57 56 55 54 54 55 55 59 60 60 60 61 62 63 62 61 61 61 61 61 61 59 58 55 55 55 55
58 56 55 54 55 57 58 59 59 59 60 60 58 57 57 57 57 57 58 58 58 59 59 61 62 60 60 61 62 62 62 61 60 59 59 59 59 60 59 59 56 56 55
57 55 55 55 58 58 59 59 60 60 60 60 57 56 55 56 57 57 58 58 58 59 58 59 60 61 61 59 58 58 58 58 59 60 61 59 59 58 58 58 59 58 57
56 56 58 58 59 60 59 60 61 61 59 60 58 58 53 54 56 57 57 57 57 57 57 57 58 58 58 57 56 55 56 56 58 59 59 59 58 57 57 57 57 59 58
58 60 61 60 61 62 61 62 62 62 62 59 59 59 59 59 55 54 55 54 55 55 56 56 56 56 56 55 54 53 54 56 57 58 58 58 58 56 56 56 57 57 57
62 63 62 63 63 63 63 62 61 61 60 60 59 60 59 58 58 56 53 55 56 56 57 56 55 54 53 53 53 53 53 55 57 58 58 58 58 56 56 57 57 57 57
63 63 63 63 63 63 62 62 61 61 60 60 60 60 59 57 57 56 54 53 54 55 56 56 55 54 53 53 53 52 52 53 54 56 58 58 57 57 57 56 56 56 55
61 61 62 62 62 62 62 61 60 61 60 60 60 60 60 59 59 56 54 52 53 54 54 54 54 54 54 52 51 51 51 52 54 56 56 57 57 57 55 54 54 53 53
61 62 62 62 62 62 61 61 61 61 61 61 61 61 60 58 58 57 55 54 52 50 52 52 53 52 52 52 51 51 51 53 54 57 57 57 55 54 53 53 53 53 53
61 61 62 62 61 62 61 61 60 61 61 61 60 60 58 57 57 57 56 56 54 49 47 49 51 50 51 51 51 51 51 53 53 53 53 53 52 52 52 52 52 52 53
62 62 62 61 61 61 61 62 61 61 60 59 58 57 56 55 54 54 53 52 51 51 47 49 50 50 50 49 50 49 50 51 52 52 51 51 50 50 49 50 50 51 52
61 61 61 62 61 61 61 61 60 59 58 57 56 55 53 52 51 51 51 50 50 50 48 48 50 49 48 48 48 48 49 49 50 50 50 49 48 48 48 49 49 51 52
61 60 60 60 60 60 60 59 58 58 56 54 53 51 50 49 48 49 50 49 48 48 48 46 47 46 46 46 46 46 45 44 46 48 48 47 48 47 48 47 47 48 51
60 60 59 58 58 58 58 58 56 54 52 51 50 49 48 47 47 48 47 46 46 46 46 45 45 45 44 44 44 43 41 42 42 44 47 47 48 47 46 46 46 45 46
57 57 57 56 55 55 54 51 50 48 47 46 46 46 45 45 45 46 46 45 44 44 43 43 43 44 43 43 43 42 40 39 39 40 44 46 47 45 45 44 44 43 43
53 51 50 50 49 48 45 45 45 44 44 44 43 43 43 41 42 42 42 43 42 41 41 40 39 41 41 40 40 41 39 38 37 37 39 40 40 41 42 43 41 40 40
48 46 45 44 42 41 43 43 43 43 42 42 40 40 39 39 40 41 42 42 41 40 39 39 39 38 38 39 40 39 37 36 37 36 37 37 35 36 35 38 39 39 37
46 45 44 42 41 42 43 43 42 42 41 41 40 39 39 39 39 40 40 39 39 38 39 38 37 37 38 39 39 38 37 36 36 35 35 35 31 32 32 33 37 34 35
44 43 43 42 41 42 42 42 41 41 40 39 39 39 39 38 39 38 38 38 38 38 36 36 36 35 36 36 37 38 37 36 32 30 33 34 29 30 30 28 34 35 34
41 41 42 42 41 41 41 41 40 39 38 37 38 38 38 37 38 38 37 36 36 36 35 37 35 35 35 37 39 37 35 33 33 32 28 30 28 29 29 28 31 34 33
41 40 40 41 42 41 41 40 39 38 37 36 36 36 37 36 39 38 36 36 35 33 31 31 31 30 31 31 33 32 34 33 33 32 30 29 27 28 27 29 30 32 34
Wind_Speed
17 17 16 15 14 14 15 15 13 9 5 4 5 6 5 6 10 12 12 12 8 7 7 6 6 5 4 5 5 4 4 4 4 3 3 4 4 6 7 8 9 10 12
18 17 16 14 16 14 16 14 9 10 5 5 6 5 4 3 4 10 12 12 12 9 7 7 6 6 5 5 4 4 4 4 3 3 3 3 2 3 4 5 6 6 8
22 19 16 14 13 13 13 9 8 7 6 2 5 7 6 8 5 5 11 11 11 11 9 8 8 8 7 6 6 6 5 5 5 5 5 5 4 3 3 3 4 5 6
22 20 18 15 13 12 12 9 8 7 7 5 4 5 3 2 3 6 5 9 11 10 12 12 10 9 10 10 9 9 8 8 8 7 7 7 6 5 3 1 1 3 4
19 21 18 16 15 13 11 10 8 7 6 6 2 1 3 1 1 3 1 3 8 7 11 14 14 10 8 7 9 9 9 8 8 9 10 9 8 7 6 5 3 3 2
17 15 16 17 16 13 12 11 10 7 9 9 6 4 3 4 3 1 1 4 4 6 4 6 12 12 11 7 4 5 5 3 7 6 4 10 11 10 8 9 9 9 8
18 16 16 18 16 16 14 12 8 8 2 3 2 4 5 7 6 3 3 4 7 6 8 8 7 4 5 4 4 6 7 6 6 7 8 9 10 9 13 14 13 12 11
19 18 17 16 16 16 15 14 11 8 6 6 3 2 3 1 2 7 6 5 4 3 4 4 4 4 7 5 3 5 4 3 5 6 8 6 5 6 7 8 14 16 14
21 16 19 17 17 16 15 13 11 9 7 5 6 3 2 2 2 2 3 1 1 2 2 1 1 2 1 2 3 3 3 3 3 2 3 6 8 7 8 8 8 11 14
21 17 20 20 15 13 13 10 8 5 5 7 2 2 3 3 2 2 1 3 3 4 3 2 1 1 0 1 2 4 7 8 8 8 8 8 7 6 9 9 9 9 7
20 17 18 16 16 15 13 12 13 12 9 7 4 4 2 2 1 4 3 4 4 5 4 4 2 1 0 1 2 2 4 6 8 10 10 10 11 8 4 3 6 7 10
16 16 17 17 15 14 15 14 13 12 11 9 5 3 4 3 5 5 5 6 6 3 2 3 5 5 5 3 2 2 5 8 9 12 13 12 10 7 4 4 7 10 11
16 17 17 18 17 16 16 14 12 8 6 6 7 4 3 6 5 6 3 6 5 1 2 6 5 5 6 2 0 2 4 7 10 14 13 10 8 6 8 10 11 13 17
17 16 17 16 17 16 15 14 9 5 4 5 4 4 3 5 5 2 4 3 4 2 3 6 4 4 4 3 4 2 4 5 9 13 9 4 9 8 8 7 10 12 16
18 18 16 17 16 14 14 12 6 3 6 3 5 5 7 5 5 1 3 2 1 2 2 4 3 6 5 4 3 3 2 2 3 7 9 10 8 7 6 6 7 11 15
18 19 18 15 14 13 11 11 10 6 3 6 8 8 5 4 3 4 5 4 2 4 4 3 6 4 6 5 5 3 3 3 2 2 3 4 4 2 2 3 7 10 13
12 16 17 17 17 16 13 12 13 10 9 9 6 7 8 7 7 5 4 3 1 0 6 6 4 5 7 6 5 4 4 3 2 2 2 2 3 3 5 5 6 7 8
13 15 15 17 17 16 15 13 10 14 14 12 11 10 10 7 5 5 4 4 4 3 2 8 3 4 1 1 2 1 3 3 2 1 1 2 2 4 5 5 5 7 6
17 17 17 18 17 16 16 16 17 15 13 12 11 10 10 9 7 6 4 3 4 4 4 4 6 1 2 1 2 2 3 2 1 2 1 3 5 5 4 3 4 6 8
13 12 15 16 15 15 17 17 16 15 14 12 11 10 9 8 8 7 5 4 5 4 3 4 5 4 3 3 3 6 5 1 3 1 4 2 5 5 3 3 3 4 6
14 13 14 15 16 16 15 18 17 15 15 12 9 8 8 7 8 6 4 3 4 3 2 4 7 3 5 5 5 2 3 3 3 5 2 3 3 3 1 5 3 3 4
12 12 13 13 14 12 18 18 17 16 14 13 11 8 7 6 5 5 4 4 3 2 5 5 5 7 8 7 3 2 2 2 3 4 5 6 3 4 4 4 4 3 3
12 13 11 13 13 11 14 16 17 16 15 14 13 11 10 8 7 7 6 5 4 4 4 2 7 7 5 1 2 2 3 4 4 3 5 4 6 8 6 5 6 5 6
13 12 11 12 13 11 14 15 15 13 12 10 10 9 8 8 6 5 3 3 3 4 5 4 6 6 5 6 5 5 3 3 2 3 4 4 3 6 5 7 8 9 9
11 11 12 14 14 13 13 14 14 13 11 9 7 8 8 8 8 6 4 3 2 3 6 6 4 3 4 4 4 5 4 5 4 4 7 3 3 2 4 6 8 10 11
8 8 7 7 11 14 13 13 10 11 12 10 8 7 7 6 10 8 7 7 6 2 7 4 2 2 0 3 4 2 2 6 4 2 5 8 6 5 3 2 4 6 7
Wind_Direction
150 147 149 154 166 173 167 177 201 177 192 189 112 105 93 132 127 144 155 159 160 162 157 156 155 150 145 144 143 144 142 136 130 117 109 98 90 75 73 71 64 58 56
152 146 156 167 177 177 175 187 170 159 194 155 150 134 164 102 138 140 160 171 174 181 187 189 188 188 192 185 184 187 193 183 181 170 171 155 134 110 101 85 84 79 79
151 150 157 174 201 156 150 157 164 158 171 187 152 166 181 188 186 179 167 177 183 190 202 216 216 213 220 224 223 222 225 227 219 216 216 208 192 189 174 144 103 83 70
148 155 171 189 167 143 152 154 154 167 158 157 224 175 148 131 178 204 188 162 184 194 209 215 231 232 235 240 247 251 240 236 240 240 234 234 228 222 223 213 124 79 69
154 166 174 143 141 140 146 157 164 178 174 171 184 141 175 186 213 302 176 201 174 169 200 223 221 227 245 267 272 276 285 294 268 258 249 247 245 243 237 230 217 204 177
153 143 143 141 142 153 159 164 170 184 188 185 186 207 222 223 202 194 291 253 213 186 217 192 207 218 221 239 286 318 308 351 11 14 308 277 258 246 239 237 223 220 211
153 152 149 147 155 161 166 169 166 178 167 96 93 235 230 215 187 176 85 23 38 31 57 41 74 148 130 136 106 82 61 44 22 9 5 352 349 280 248 236 231 222 220
159 157 154 156 162 169 172 170 165 168 180 178 161 151 150 130 84 85 67 39 31 16 42 39 28 99 140 151 143 100 99 85 56 29 9 325 325 332 323 286 251 235 223
163 164 156 161 171 168 164 173 163 160 172 63 105 124 163 109 121 151 124 140 267 274 261 308 14 29 94 159 176 169 201 207 191 221 299 303 315 321 314 314 321 259 241
164 168 160 162 164 157 165 153 141 170 131 130 90 150 118 115 117 201 182 203 233 238 217 212 232 247 332 350 350 9 358 343 326 306 288 281 285 298 312 323 331 330 301
168 162 156 146 143 138 142 142 116 108 114 134 158 150 113 93 205 207 261 265 298 247 235 238 248 206 32 322 339 323 311 306 300 293 290 285 290 293 346 26 22 353 347
149 144 140 139 144 144 142 140 140 149 151 152 193 166 171 173 191 214 238 281 257 289 213 209 213 212 198 203 189 293 292 298 308 299 286 276 285 289 116 43 8 346 332
150 155 152 153 154 153 155 160 155 152 159 172 183 175 207 248 239 199 216 263 265 236 272 258 227 188 152 156 207 245 300 301 318 308 286 279 268 90 46 28 358 345 337
153 150 145 150 151 158 161 159 157 140 171 146 145 152 248 130 108 128 190 194 294 291 281 268 76 102 100 117 118 89 314 335 344 9 263 228 93 73 53 28 357 343 336
155 156 150 153 157 162 160 151 136 182 206 195 220 196 154 127 111 74 114 116 184 274 311 16 103 53 68 57 64 23 307 333 9 44 55 73 72 61 40 5 352 342 341
153 150 149 153 160 163 165 167 168 182 139 137 145 156 143 137 143 178 157 159 184 215 248 56 58 58 27 26 35 9 16 52 15 55 72 74 79 58 61 357 346 343 353
157 154 155 154 164 168 185 200 145 151 183 170 149 180 177 173 181 164 144 114 107 310 266 293 45 40 32 16 357 3 360 2 43 71 74 49 45 44 41 25 359 346 360
175 164 157 163 167 163 163 159 147 159 178 182 191 185 177 153 138 123 121 99 97 75 229 270 301 347 355 358 360 294 331 332 5 18 84 183 168 119 87 51 32 44 49
183 178 174 173 168 163 165 164 173 172 175 185 182 182 160 146 151 139 145 144 170 205 229 251 280 290 304 289 244 205 206 224 263 308 297 230 172 151 136 100 79 63 41
161 162 163 156 152 149 160 157 159 160 155 146 138 138 135 144 142 138 147 178 166 172 248 271 275 241 246 265 275 284 288 240 260 269 78 131 157 142 152 158 110 94 75
133 132 130 130 136 147 147 142 143 145 141 134 124 120 105 98 88 92 135 135 172 185 207 266 270 287 288 271 281 232 287 303 282 235 199 165 134 153 173 123 143 119 121
105 101 122 131 131 129 138 138 140 148 150 154 152 130 115 117 132 135 137 113 121 153 213 237 272 276 289 286 239 242 255 262 293 188 201 212 172 202 197 192 195 193 186
123 129 134 136 139 136 139 145 148 149 153 157 155 155 155 162 164 177 177 174 164 158 184 192 251 253 257 161 337 302 265 254 247 276 193 245 195 216 213 215 212 210 209
132 137 138 142 145 140 143 142 146 146 146 151 158 167 165 172 172 152 155 139 168 198 171 189 233 253 255 279 236 221 237 268 273 259 208 235 192 216 202 217 224 230 227
133 143 151 156 147 149 154 152 146 142 146 154 161 163 167 163 169 162 172 210 264 246 158 167 192 249 301 325 267 180 198 201 242 247 207 208 218 193 182 219 220 228 231
141 146 150 148 155 162 163 166 157 154 163 165 165 172 168 174 175 177 184 197 219 208 176 194 214 221 69 20 33 84 191 211 201 285 198 200 179 170 191 229 213 218 235